RYR9503 EGGD-EPBY

Flight info

Callsign RYR9503
Flight time N/A
Altitude 37000
Route HAWFA L607 ALHAD P72 IPRIL M197 REDFA L620 TACHA DCT AMSAN L980 HLZ DCT GILAS M994 DENKO N858 DEKUT Z96 LUXUD
Aircraft B738/M-SDE2E3FGHIRWXY/LB1

Departure

Time N/A
Airport Bristol Airport (EGGD)

Arrival

Time 2026-05-04 19:10
Airport Ignacy Jan Paderewski Bydgoszcz Airport (EPBY)
Time Latitude Longitude Altitude Speed Heading
2026-05-04 17:36 52.13613 2.61130 37096 ft 479 kts 70°
2026-05-04 17:36 52.14564 2.65998 37102 ft 478 kts 71°
2026-05-04 17:37 52.16444 2.75529 37108 ft 479 kts 71°
2026-05-04 17:37 52.18292 2.85029 37102 ft 478 kts 71°
2026-05-04 17:38 52.20133 2.94694 37111 ft 479 kts 71°
2026-05-04 17:38 52.22074 3.05033 37106 ft 476 kts 71°
2026-05-04 17:39 52.24818 3.20383 37123 ft 477 kts 75°
2026-05-04 17:39 52.25660 3.30878 37126 ft 478 kts 88°
2026-05-04 17:40 52.25625 3.41243 37126 ft 478 kts 92°
2026-05-04 17:40 52.25412 3.51808 37124 ft 478 kts 92°
2026-05-04 17:41 52.25191 3.62488 37128 ft 478 kts 92°
2026-05-04 17:41 52.24996 3.72927 37140 ft 477 kts 92°
2026-05-04 17:42 52.24813 3.83413 37131 ft 477 kts 92°
2026-05-04 17:42 52.24630 3.94142 37130 ft 476 kts 92°
2026-05-04 17:43 52.24440 4.04890 37142 ft 476 kts 92°
2026-05-04 17:43 52.24244 4.15599 37136 ft 475 kts 92°
2026-05-04 17:44 52.24039 4.26288 37150 ft 476 kts 92°
2026-05-04 17:44 52.23823 4.37084 37147 ft 475 kts 92°
2026-05-04 17:45 52.23600 4.47779 37146 ft 474 kts 92°
2026-05-04 17:45 52.23368 4.58450 37144 ft 473 kts 92°
2026-05-04 17:46 52.23125 4.69094 37149 ft 474 kts 93°
2026-05-04 17:46 52.22875 4.79683 37152 ft 473 kts 93°
2026-05-04 17:47 52.22617 4.90190 37155 ft 473 kts 93°
2026-05-04 17:47 52.22345 5.00841 37145 ft 473 kts 93°
2026-05-04 17:48 52.22065 5.11468 37140 ft 472 kts 93°
2026-05-04 17:48 52.21776 5.22035 37139 ft 474 kts 93°
2026-05-04 17:49 52.21479 5.32578 37144 ft 472 kts 93°
2026-05-04 17:49 52.21172 5.43189 37149 ft 473 kts 93°
2026-05-04 17:50 52.20853 5.53823 37155 ft 471 kts 93°
2026-05-04 17:50 52.20524 5.64432 37149 ft 471 kts 93°
2026-05-04 17:51 52.20190 5.74949 37152 ft 471 kts 94°
2026-05-04 17:51 52.19843 5.85568 37148 ft 471 kts 94°
2026-05-04 17:52 52.19486 5.96203 37150 ft 471 kts 94°
2026-05-04 17:52 52.19121 6.06780 37147 ft 471 kts 94°
2026-05-04 17:53 52.18747 6.17337 37149 ft 471 kts 94°
2026-05-04 17:53 52.18404 6.26783 37152 ft 470 kts 94°
2026-05-04 17:54 52.18064 6.36001 37146 ft 471 kts 94°
2026-05-04 17:54 52.17710 6.45404 37149 ft 469 kts 94°
2026-05-04 17:55 52.17343 6.54914 37150 ft 470 kts 94°
2026-05-04 17:55 52.16978 6.64183 37153 ft 471 kts 94°
2026-05-04 17:56 52.16600 6.73572 37146 ft 471 kts 95°
2026-05-04 17:56 52.16223 6.82773 37149 ft 470 kts 95°
2026-05-04 17:57 52.15836 6.92023 37139 ft 471 kts 95°
2026-05-04 17:57 52.15440 7.01345 37151 ft 471 kts 94°
2026-05-04 17:58 52.15116 7.10560 37149 ft 470 kts 91°
2026-05-04 17:58 52.15292 7.19838 37143 ft 470 kts 86°
2026-05-04 17:59 52.15741 7.29199 37154 ft 471 kts 84°
2026-05-04 18:00 52.16505 7.43470 37145 ft 470 kts 84°
2026-05-04 18:00 52.16982 7.53001 37155 ft 471 kts 85°
2026-05-04 18:01 52.17421 7.62306 37159 ft 471 kts 85°
2026-05-04 18:01 52.17839 7.71615 37158 ft 470 kts 86°
2026-05-04 18:02 52.18403 7.85509 37160 ft 469 kts 86°
2026-05-04 18:02 52.18760 7.94801 37152 ft 469 kts 86°
2026-05-04 18:03 52.19109 8.04024 37146 ft 468 kts 86°
2026-05-04 18:03 52.19452 8.13259 37141 ft 469 kts 86°
2026-05-04 18:04 52.19791 8.22558 37145 ft 468 kts 86°
2026-05-04 18:05 52.20343 8.37235 37143 ft 469 kts 84°
2026-05-04 18:05 52.21077 8.46581 37143 ft 469 kts 80°
2026-05-04 18:06 52.22514 8.60394 37143 ft 468 kts 79°
2026-05-04 18:06 52.23444 8.69444 37145 ft 468 kts 80°
2026-05-04 18:07 52.24334 8.78541 37142 ft 468 kts 81°
2026-05-04 18:07 52.25279 8.88571 37144 ft 467 kts 81°
2026-05-04 18:08 52.26201 8.98604 37149 ft 467 kts 81°
2026-05-04 18:08 52.27079 9.08293 37148 ft 467 kts 81°
2026-05-04 18:09 52.28782 9.27420 37143 ft 468 kts 81°
2026-05-04 18:10 52.29616 9.36924 37146 ft 468 kts 81°
2026-05-04 18:10 52.30451 9.46514 37142 ft 469 kts 81°
2026-05-04 18:11 52.30907 9.51800 37144 ft 469 kts 81°
2026-05-04 18:12 52.31189 9.55082 37151 ft 468 kts 81°
2026-05-04 18:12 52.31994 9.64501 37141 ft 467 kts 81°
2026-05-04 18:13 52.32805 9.74076 37181 ft 467 kts 82°
2026-05-04 18:14 52.33991 9.88295 37202 ft 466 kts 83°
2026-05-04 18:14 52.34787 9.97947 37001 ft 462 kts 84°
2026-05-04 18:15 52.36310 10.16694 36936 ft 466 kts 84°
2026-05-04 18:16 52.37060 10.26066 36927 ft 466 kts 84°
2026-05-04 18:16 52.37806 10.35496 36938 ft 467 kts 84°
2026-05-04 18:17 52.38909 10.49620 36942 ft 465 kts 84°
2026-05-04 18:18 52.40009 10.63913 36940 ft 466 kts 84°
2026-05-04 18:18 52.40716 10.73225 36942 ft 465 kts 85°
2026-05-04 18:19 52.41772 10.87336 36935 ft 465 kts 84°
2026-05-04 18:19 52.42464 10.96711 36935 ft 466 kts 84°
2026-05-04 18:20 52.43131 11.05823 36942 ft 465 kts 84°
2026-05-04 18:20 52.43795 11.14985 36937 ft 465 kts 84°
2026-05-04 18:21 52.44459 11.24244 36938 ft 465 kts 84°
2026-05-04 18:21 52.45152 11.34042 36944 ft 464 kts 84°
2026-05-04 18:22 52.45806 11.43418 36948 ft 466 kts 84°
2026-05-04 18:22 52.46440 11.52584 36948 ft 465 kts 84°
2026-05-04 18:23 52.47067 11.61752 36951 ft 465 kts 84°
2026-05-04 18:23 52.47667 11.70655 36944 ft 465 kts 85°
2026-05-04 18:24 52.48259 11.79536 36944 ft 465 kts 85°
2026-05-04 18:24 52.48850 11.88501 36949 ft 464 kts 85°
2026-05-04 18:25 52.49428 11.97390 36945 ft 465 kts 85°
2026-05-04 18:25 52.50000 12.06307 36937 ft 464 kts 85°
2026-05-04 18:26 52.50568 12.15245 36939 ft 465 kts 85°
2026-05-04 18:26 52.51122 12.24074 36938 ft 464 kts 85°
2026-05-04 18:27 52.51695 12.33309 36937 ft 465 kts 85°
2026-05-04 18:27 52.52228 12.42006 36935 ft 465 kts 85°
2026-05-04 18:28 52.52768 12.50927 36944 ft 465 kts 85°
2026-05-04 18:28 52.53309 12.59970 36940 ft 466 kts 85°
2026-05-04 18:29 52.53852 12.69176 36927 ft 465 kts 85°
2026-05-04 18:29 52.54372 12.78108 36939 ft 466 kts 86°
2026-05-04 18:30 52.55135 12.91469 36942 ft 465 kts 86°
2026-05-04 18:31 52.55635 13.00347 36938 ft 466 kts 85°
2026-05-04 18:31 52.56128 13.09198 36937 ft 465 kts 86°
2026-05-04 18:32 52.56609 13.17973 36934 ft 466 kts 85°
2026-05-04 18:32 52.57110 13.27245 36927 ft 465 kts 85°
2026-05-04 18:33 52.57612 13.36668 36928 ft 467 kts 85°
2026-05-04 18:33 52.58113 13.46246 36928 ft 464 kts 85°
2026-05-04 18:34 52.58615 13.55993 36938 ft 466 kts 85°
2026-05-04 18:34 52.59101 13.65566 36937 ft 465 kts 86°
2026-05-04 18:35 52.59326 13.70037 36937 ft 465 kts 86°
2026-05-04 18:35 52.59802 13.79628 36937 ft 465 kts 86°
2026-05-04 18:36 52.60278 13.89418 36942 ft 465 kts 86°
2026-05-04 18:36 52.60756 13.99438 36943 ft 465 kts 86°
2026-05-04 18:37 52.61229 14.09479 36937 ft 463 kts 86°
2026-05-04 18:37 52.61691 14.19499 36943 ft 464 kts 86°
2026-05-04 18:38 52.62125 14.29089 36938 ft 463 kts 86°
2026-05-04 18:38 52.62553 14.38702 36939 ft 464 kts 86°
2026-05-04 18:39 52.62998 14.48567 36944 ft 463 kts 84°
2026-05-04 18:39 52.63881 14.57906 36943 ft 464 kts 78°
2026-05-04 18:40 52.65128 14.66917 36934 ft 463 kts 76°
2026-05-04 18:40 52.66492 14.75981 36929 ft 463 kts 76°
2026-05-04 18:41 52.67925 14.85510 36925 ft 464 kts 76°
2026-05-04 18:41 52.69295 14.94788 36926 ft 463 kts 76°
2026-05-04 18:42 52.70668 15.04247 36928 ft 464 kts 76°
2026-05-04 18:42 52.72008 15.13611 36926 ft 464 kts 76°
2026-05-04 18:43 52.73023 15.20765 36927 ft 464 kts 76°
2026-05-04 18:43 52.74329 15.30018 36928 ft 464 kts 76°
2026-05-04 18:44 52.75240 15.36510 36745 ft 460 kts 76°
2026-05-04 18:44 52.75455 15.38042 36585 ft 459 kts 76°
2026-05-04 18:44 52.76580 15.46107 35339 ft 465 kts 76°
2026-05-04 18:44 52.77228 15.50766 34915 ft 460 kts 76°
2026-05-04 18:45 52.77868 15.55391 34356 ft 456 kts 76°
2026-05-04 18:45 52.78487 15.59876 33796 ft 452 kts 76°
2026-05-04 18:45 52.79110 15.64405 33242 ft 448 kts 76°
2026-05-04 18:45 52.79717 15.68828 32715 ft 444 kts 77°
2026-05-04 18:46 52.80323 15.73264 32224 ft 438 kts 77°
2026-05-04 18:46 52.80943 15.77804 31815 ft 431 kts 77°
2026-05-04 18:46 52.81644 15.82296 31066 ft 432 kts 73°
2026-05-04 18:46 52.82530 15.86614 30705 ft 422 kts 69°
2026-05-04 18:47 52.83477 15.90649 30359 ft 417 kts 67°
2026-05-04 18:47 52.84501 15.94736 29875 ft 419 kts 66°
2026-05-04 18:47 52.85546 15.98794 29300 ft 416 kts 66°
2026-05-04 18:47 52.86591 16.02826 28982 ft 407 kts 66°
2026-05-04 18:48 52.87606 16.06752 28258 ft 409 kts 66°
2026-05-04 18:48 52.88601 16.10622 27677 ft 409 kts 66°
2026-05-04 18:48 52.89595 16.14509 27302 ft 404 kts 66°
2026-05-04 18:48 52.90587 16.18413 26861 ft 402 kts 66°
2026-05-04 18:49 52.91574 16.22316 26472 ft 398 kts 66°
2026-05-04 18:49 52.92527 16.26094 26027 ft 396 kts 66°
2026-05-04 18:49 52.93480 16.29890 25604 ft 394 kts 66°
2026-05-04 18:49 52.94417 16.33628 25188 ft 391 kts 67°
2026-05-04 18:50 52.95347 16.37349 24826 ft 387 kts 67°
2026-05-04 18:50 52.96262 16.41016 24387 ft 386 kts 67°
2026-05-04 18:50 52.97220 16.44861 24001 ft 382 kts 67°
2026-05-04 18:50 52.98162 16.48655 23584 ft 380 kts 67°
2026-05-04 18:51 52.99086 16.52377 23213 ft 377 kts 67°
2026-05-04 18:51 52.99981 16.55989 22836 ft 374 kts 67°
2026-05-04 18:51 53.00886 16.59644 22420 ft 373 kts 67°
2026-05-04 18:51 53.01762 16.63197 22069 ft 370 kts 67°
2026-05-04 18:52 53.02651 16.66798 21654 ft 368 kts 68°
2026-05-04 18:52 53.03576 16.70550 21226 ft 367 kts 68°
2026-05-04 18:52 53.04474 16.74200 20854 ft 364 kts 68°
2026-05-04 18:52 53.05352 16.77785 20454 ft 362 kts 68°
2026-05-04 18:53 53.06223 16.81344 20082 ft 360 kts 68°
2026-05-04 18:53 53.07110 16.84964 19672 ft 358 kts 68°
2026-05-04 18:53 53.07972 16.88489 19302 ft 356 kts 67°
2026-05-04 18:53 53.08834 16.92025 18882 ft 355 kts 67°
2026-05-04 18:54 53.09688 16.95535 18457 ft 351 kts 67°
2026-05-04 18:54 53.10527 16.99006 17976 ft 349 kts 68°
2026-05-04 18:54 53.11229 17.02503 17489 ft 347 kts 75°
2026-05-04 18:54 53.11615 17.06117 16982 ft 345 kts 86°
2026-05-04 18:55 53.11688 17.09840 16567 ft 339 kts 92°
2026-05-04 18:55 53.11517 17.17090 15597 ft 335 kts 94°
2026-05-04 18:55 53.11411 17.20781 15128 ft 332 kts 94°
2026-05-04 18:56 53.11318 17.24465 14612 ft 331 kts 94°
2026-05-04 18:56 53.11242 17.27947 14177 ft 328 kts 93°
2026-05-04 18:56 53.11175 17.31421 13728 ft 326 kts 93°
2026-05-04 18:56 53.11114 17.34809 13428 ft 318 kts 93°
2026-05-04 18:57 53.11053 17.38247 13173 ft 316 kts 93°
2026-05-04 18:57 53.10990 17.41713 12640 ft 319 kts 93°
2026-05-04 18:57 53.10927 17.45172 12292 ft 312 kts 92°
2026-05-04 18:57 53.10865 17.48541 12087 ft 311 kts 92°
2026-05-04 18:58 53.10811 17.51879 11810 ft 316 kts 90°
2026-05-04 18:58 53.10971 17.55287 11335 ft 315 kts 80°
2026-05-04 18:58 53.11412 17.58586 10942 ft 310 kts 74°
2026-05-04 18:58 53.11970 17.61809 10699 ft 303 kts 72°
2026-05-04 18:59 53.12549 17.64972 10347 ft 306 kts 72°
2026-05-04 18:59 53.13106 17.68093 9964 ft 302 kts 73°
2026-05-04 18:59 53.13649 17.71253 9513 ft 301 kts 74°
2026-05-04 18:59 53.14169 17.74369 9124 ft 298 kts 74°
2026-05-04 19:00 53.14662 17.77365 8717 ft 296 kts 75°
2026-05-04 19:00 53.15170 17.80478 8287 ft 294 kts 75°
2026-05-04 19:00 53.15654 17.83459 7925 ft 290 kts 75°
2026-05-04 19:00 53.16142 17.86475 7533 ft 288 kts 75°
2026-05-04 19:01 53.16621 17.89430 7168 ft 286 kts 75°
2026-05-04 19:01 53.17106 17.92417 6750 ft 284 kts 75°
2026-05-04 19:01 53.17603 17.95489 6349 ft 282 kts 75°
2026-05-04 19:01 53.18074 17.98439 5943 ft 280 kts 77°
2026-05-04 19:02 53.18430 18.01428 5569 ft 278 kts 81°
2026-05-04 19:02 53.18699 18.04431 5209 ft 275 kts 82°
2026-05-04 19:02 53.18935 18.07388 4833 ft 272 kts 82°
2026-05-04 19:02 53.19167 18.10332 4446 ft 270 kts 82°
2026-05-04 19:03 53.19397 18.13233 4080 ft 268 kts 82°
2026-05-04 19:03 53.19632 18.16091 3980 ft 257 kts 81°
2026-05-04 19:03 53.19756 18.17562 4022 ft 253 kts 81°
2026-05-04 19:03 53.19969 18.20265 4015 ft 237 kts 84°
2026-05-04 19:04 53.19924 18.22854 3952 ft 223 kts 104°
2026-05-04 19:04 53.19231 18.24911 3952 ft 206 kts 138°
2026-05-04 19:04 53.18372 18.25967 3957 ft 202 kts 154°
2026-05-04 19:04 53.17413 18.26700 3888 ft 192 kts 165°
2026-05-04 19:05 53.16172 18.27114 3599 ft 190 kts 177°
2026-05-04 19:05 53.14990 18.27307 3486 ft 179 kts 179°
2026-05-04 19:05 53.13852 18.27190 3324 ft 169 kts 199°
2026-05-04 19:05 53.12889 18.26363 3061 ft 164 kts 222°
2026-05-04 19:06 53.12203 18.25107 2970 ft 159 kts 244°
2026-05-04 19:06 53.11930 18.23452 2983 ft 160 kts 263°
2026-05-04 19:06 53.11757 18.21777 2903 ft 163 kts 261°
2026-05-04 19:06 53.11578 18.20073 2664 ft 163 kts 263°
2026-05-04 19:07 53.11421 18.18363 2462 ft 161 kts 264°
2026-05-04 19:07 53.11267 18.16606 2248 ft 163 kts 264°
2026-05-04 19:07 53.11120 18.14899 2046 ft 162 kts 265°
2026-05-04 19:07 53.10975 18.13189 1846 ft 161 kts 265°
2026-05-04 19:08 53.10832 18.11490 1642 ft 162 kts 265°
2026-05-04 19:08 53.10684 18.09715 1437 ft 158 kts 265°
2026-05-04 19:08 53.10543 18.08021 1256 ft 159 kts 265°
2026-05-04 19:08 53.10406 18.06376 1054 ft 158 kts 265°
2026-05-04 19:09 53.10266 18.04722 850 ft 149 kts 264°
2026-05-04 19:09 53.10136 18.03183 680 ft 143 kts 264°
2026-05-04 19:09 53.10039 18.02015 546 ft 143 kts 264°
2026-05-04 19:09 53.09942 18.00815 407 ft 141 kts 264°
2026-05-04 19:10 53.09813 17.99344 250 ft 140 kts 263°
2026-05-04 19:10 53.09758 17.98690 230 ft 134 kts 263°
2026-05-04 19:10 53.09684 17.97796 229 ft 66 kts 260°
2026-05-04 19:10 53.09636 17.97253 227 ft 42 kts 262°
2026-05-04 19:11 53.09610 17.96937 228 ft 14 kts 262°
2026-05-04 19:11 53.09603 17.96871 228 ft 14 kts 248°
2026-05-04 19:11 53.09587 17.96843 229 ft 13 kts 212°
2026-05-04 19:11 53.09534 17.96834 231 ft 6 kts 171°
2026-05-04 19:12 53.09522 17.96837 231 ft 5 kts 171°
2026-05-04 19:12 53.09489 17.96846 232 ft 2 kts 173°
2026-05-04 19:12 53.09473 17.96849 233 ft 6 kts 173°
2026-05-04 19:13 53.09468 17.96850 233 ft 6 kts 173°
2026-05-04 19:13 53.09450 17.96854 234 ft 5 kts 173°
2026-05-04 19:13 53.09446 17.96855 234 ft 4 kts 173°
2026-05-04 19:13 53.09444 17.96855 234 ft 4 kts 173°
2026-05-04 19:14 53.09432 17.96858 235 ft 3 kts 171°
2026-05-04 19:14 53.09413 17.96862 235 ft 2 kts 172°
2026-05-04 19:14 53.09375 17.96871 237 ft 7 kts 172°
2026-05-04 19:14 53.09348 17.96907 238 ft 4 kts 102°
2026-05-04 19:15 53.09350 17.96958 238 ft 5 kts 82°
2026-05-04 19:15 53.09359 17.97074 239 ft 16 kts 83°
2026-05-04 19:15 53.09374 17.97242 238 ft 16 kts 82°
2026-05-04 19:15 53.09386 17.97391 236 ft 13 kts 82°
2026-05-04 19:16 53.09398 17.97537 235 ft 13 kts 82°
2026-05-04 19:16 53.09410 17.97684 234 ft 14 kts 82°
2026-05-04 19:16 53.09413 17.97713 234 ft 14 kts 82°
2026-05-04 19:17 53.09418 17.97765 234 ft 13 kts 82°
2026-05-04 19:17 53.09429 17.97898 232 ft 11 kts 82°
2026-05-04 19:17 53.09439 17.98020 230 ft 11 kts 82°
2026-05-04 19:17 53.09447 17.98116 231 ft 6 kts 82°
2026-05-04 19:18 53.09450 17.98162 232 ft 3 kts 82°
2026-05-04 19:18 53.09455 17.98216 233 ft 6 kts 82°
2026-05-04 19:18 53.09464 17.98313 233 ft 11 kts 82°
2026-05-04 19:18 53.09478 17.98484 232 ft 17 kts 82°
2026-05-04 19:19 53.09494 17.98676 235 ft 15 kts 82°
2026-05-04 19:19 53.09504 17.98795 235 ft 9 kts 82°
2026-05-04 19:19 53.09515 17.98924 235 ft 13 kts 82°
2026-05-04 19:19 53.09528 17.99080 235 ft 13 kts 82°
2026-05-04 19:20 53.09540 17.99225 236 ft 13 kts 82°
2026-05-04 19:20 53.09553 17.99374 236 ft 16 kts 83°
2026-05-04 19:20 53.09555 17.99406 236 ft 17 kts 82°